Regional Weather Roundup
Issued by NWS

Home | Current Version | Previous Version | Text Only | Print | Product List | Glossary Off
Versions: 1 2 3 4 5 6 7 8 9 10 11 12 13 14 15 16 17 18 19 20 21 22 23 24 25 26 27 28 29 30 31 32 33 34 35 36 37 38 39 40 41 42 43 44 45 46 47 48 49 50

000
ASUS45 KABQ 221701
RWRNM
WEATHER ROUNDUP FOR NEW MEXICO
NATIONAL WEATHER SERVICE ALBUQUERQUE NM
1100 AM MDT TUE APR 22 2014

NOTE: "FAIR" MEANS FEW OR NO CLOUDS BELOW 12,000 FEET AGL WITH NO
       SIGNIFICANT WEATHER OR OBSTRUCTIONS TO VISION.

      THIS PRODUCT IS RELEASED AS TWO VERSIONS.  ONE VERSION NEAR
      THE TOP OF THE HOUR CONTAINING PRELIMINARY DATA FROM ALBUQUERQUE
      AND OTHER STATIONS.  A FINAL VERSION WITH ADDITIONAL DATA IS
      ISSUED ABOUT 10 MINUTES AFTER THE HOUR.

NMZ501-503-504-510>518-221800-
NORTHWEST PLATEAU/NORTHCENTRAL MOUNTAINS

CITY           SKY/WX    TMP DP  RH WIND       PRES   REMARKS
FARMINGTON     MOSUNNY   70  34  26 SE7       30.05F
LOS ALAMOS     SUNNY     60  37  42 S14G23    30.22F
SANTA FE       SUNNY     67  39  35 S15       30.17F
TAOS           MOSUNNY   63  37  39 SW12G17   30.21F
ANGEL FIRE     FAIR      60  34  37 SW16G29   30.23F

$$
NMZ402-403-502-505>509-221800-
WESTCENTRAL MOUNTAINS/SOUTHWEST MOUNTAINS

CITY           SKY/WX    TMP DP  RH WIND       PRES   REMARKS
GALLUP         PTSUNNY   73  26  17 SW24G30   30.11F
SILVER CITY    SUNNY     73  32  21 S17G23    30.15F

$$
NMZ407-409-411-412-221800-
SOUTHERN DESERTS

CITY           SKY/WX    TMP DP  RH WIND       PRES   REMARKS
DEMING         SUNNY     80  35  19 SE15G22   30.06F
LAS CRUCES     SUNNY     78  40  25 SE18      30.11F
T OR C         SUNNY     74  36  25 S14       30.11F

$$
NMZ519>523-221800-
CENTRAL VALLEYS/CENTRAL HIGHLANDS

CITY           SKY/WX    TMP DP  RH WIND       PRES   REMARKS
ALBUQUERQUE    MOSUNNY   72  37  28 S14G20    30.14F
DOUBLE EAGLE   MOSUNNY   70  37  30 S16G24    30.16F
CLINES CORNERS SUNNY     63  40  42 SW18G26   30.21F
BELEN          FAIR      74  36  24 S21       30.12F
SOCORRO        NOT AVBL

$$
NMZ524>526-539-540-221800-
SOUTHCENTRAL MOUNTAINS

CITY           SKY/WX    TMP DP  RH WIND       PRES   REMARKS
RUIDOSO        NOT AVBL

$$
NMZ527>531-221800-
NORTHEAST HIGHLANDS/NORTHEAST PLAINS

CITY           SKY/WX    TMP DP  RH WIND       PRES   REMARKS
LAS VEGAS      MOSUNNY   59  44  57 S23G31    30.21F
RATON          MOSUNNY   64  44  48 S20G28    30.14F
CLAYTON        SUNNY     69  44  40 S29G35    30.12F

$$
NMZ532>537-221800-
EASTCENTRAL PLAINS

CITY           SKY/WX    TMP DP  RH WIND       PRES   REMARKS
TUCUMCARI      SUNNY     75  43  31 S17G25    30.12F
CANNON AFB     NOT AVBL
CLOVIS AIRPORT SUNNY     72  46  40 S21       30.20F

$$
NMZ028-029-538-221800-
SOUTHEAST PLAINS

CITY           SKY/WX    TMP DP  RH WIND       PRES   REMARKS
ROSWELL        SUNNY     74  50  42 SE17      30.13F
CARLSBAD       SUNNY     75  55  49 SE16      30.11F
HOBBS          SUNNY     73  45  35 SE14G21   30.17F


$$



USA.gov is the U.S. government's official web portal to all federal, state and local government web resources and services.